Location: Plymouth
(43.7570°N, 71.6890°W)
Time: 10:59:45
(UTC-04:00)

Daily predictions for brighter satellites

Satellite Brightness Start Highest point End
(mag) Time Altitude Azimuth Time Altitude Azimuth Time Altitude Azimuth
Envisat 4.5 19:55:27 10° ESE 19:59:03 20° ENE 20:02:38 10° NNE
Meteor 1-11 Rocket 4.2 19:56:07 10° SSW 20:01:41 69° WNW 20:07:13 10° N
Helios 1B rocket 3.4 20:02:26 10° N 20:06:28 54° WNW 20:10:29 10° SSW
Cosmos 2219 4.4 20:02:42 10° NW 20:08:02 44° WSW 20:13:19 10° S
EO 1 Delta rocket 4.1 20:05:25 10° NNE 20:09:57 50° E 20:14:59 10° S
CZ-4B DEB 3.1 20:07:59 10° S 20:11:14 71° WSW 20:14:32 10° NNW
Iridium 4 Rocket 4.3 20:07:13 10° NNE 20:11:48 30° ENE 20:16:00 10° SE
DELTA 2 R/B (1) 3.9 20:08:52 10° W 20:14:19 57° S 20:19:39 11° ESE
Okean 2 3.5 20:16:04 10° N 20:20:17 86° WSW 20:24:25 10° S
Cosmos 1975 3.6 20:18:44 10° SSE 20:22:23 32° E 20:26:04 10° NNE
Meteor 2-4 Rocket 4.4 20:16:38 10° NNW 20:22:24 63° W 20:28:14 10° S
Cosmos 2123 Rocket 4.0 20:18:37 10° N 20:24:49 77° E 20:30:59 10° SSE
NOSS 2-1 (D) 3.9 20:21:14 10° SW 20:25:06 66° NW 20:29:37 10° NNE
Cosmos 1697 Rocket 3.8 20:20:52 10° SSE 20:25:09 23° E 20:29:27 10° NE
NOSS 2-1 (C) 3.9 20:22:14 10° SW 20:26:08 67° NW 20:30:39 10° NNE
Cosmos 2278 3.7 20:21:29 10° S 20:27:04 63° ESE 20:32:42 10° NNE
Lacrosse 5 rocket 1.2 20:27:16 10° NW 20:30:59 62° NE 20:33:40 17° ESE
H-2A R/B 3.3 20:29:22 14° ESE 20:31:46 23° ENE 20:35:03 10° NNE
ERS-1 Rocket 3.3 20:27:55 10° SE 20:32:44 48° ENE 20:37:34 10° N
Cosmos 1892 Rocket 4.4 20:28:27 10° NNW 20:32:51 55° W 20:37:14 10° S
ALOS 2.8 20:28:40 10° S 20:33:17 61° W 20:37:55 10° NNW
Meteor 2-15 Rocket 4.5 20:27:18 10° N 20:33:25 88° W 20:39:29 10° S
Cosmos 1626 Rocket 3.7 20:29:45 10° N 20:34:06 53° E 20:38:22 10° SSE
Cosmos 1898 Rocket 4.2 20:30:04 10° N 20:35:02 39° ENE 20:38:49 16° SE
Meteor 1-12 Rocket 4.3 20:31:17 10° S 20:36:53 59° E 20:42:36 10° NNE
H-2A R/B 3.5 20:35:46 10° S 20:39:33 56° W 20:43:26 10° NNW
Cosmos 1455 Rocket 3.2 20:35:21 10° SSW 20:39:40 76° W 20:44:02 10° N
Cosmos 2369 3.6 20:34:43 10° SSW 20:40:21 72° ESE 20:46:03 10° NNE
Cosmos 1461 2.9 20:37:22 10° NW 20:41:28 75° WSW 20:44:43 15° SSE
NOSS 2-1 (E) 4.4 20:38:19 10° SW 20:42:12 52° NW 20:46:48 10° NNE
Cosmos 1602 Rocket 3.6 20:38:02 10° N 20:42:31 66° E 20:46:53 10° SSE
Cosmos 1980 Rocket 3.4 20:45:16 17° SE 20:47:17 21° E 20:51:24 10° NE
Cosmos 1153 Rocket 4.4 20:48:04 10° S 20:54:13 70° E 21:00:20 10° NNE
Cosmos 1939 Rocket 3.0 20:51:42 18° SSE 20:54:35 61° ENE 20:58:43 10° N
Cosmos 468 Rocket 4.3 20:51:20 10° S 20:56:05 40° ESE 21:00:52 10° NE
Resurs 01 Rocket 4.5 20:54:24 10° SW 20:57:04 16° W 20:59:46 10° NW
Lacrosse 5 2.4 20:52:22 10° NW 20:57:17 47° NE 21:00:15 22° E
USA 215 4.1 20:57:32 14° E 21:02:46 41° NNE 21:08:48 10° NW
Cosmos 2084 3.5 20:59:57 10° NNW 21:03:57 61° NE 21:05:45 31° ESE
Cosmos 1814 Rocket 4.4 20:59:14 10° S 21:04:12 41° ESE 21:09:11 10° NE
SPOT 5 3.3 21:02:07 25° SE 21:04:44 46° ENE 21:09:22 10° N
Cosmos 220 Rocket 4.0 21:02:55 10° NNW 21:07:09 75° WSW 21:09:49 22° S
Cosmos 1802 Rocket 4.3 21:02:58 16° SSE 21:07:50 46° E 21:13:54 10° NNE
MetOp-B 4.5 21:07:58 26° SE 21:10:35 47° ENE 21:15:43 10° N
Cosmos 2227 Rocket 3.1 21:07:40 10° NW 21:13:06 47° WSW 21:18:21 11° S
Cosmos 2263 Rocket 4.2 21:11:30 10° NNE 21:14:07 13° NE 21:16:34 10° ENE
USA 186 4.4 21:12:14 10° SW 21:14:24 18° W 21:16:31 10° NW
Tiangong 1 0.8 21:13:07 10° W 21:16:12 74° S 21:16:25 69° SE
OTV 4 2.6 21:15:10 10° WSW 21:16:45 16° SSW 21:16:45 16° SSW
Cosmos 1606 Rocket 4.1 21:17:36 36° ESE 21:18:06 37° E 21:22:12 10° NNE
Cosmos 2322 Rocket 4.3 21:21:36 10° ENE 21:21:36 10° ENE 21:21:43 10° ENE
Cosmos 858 Rocket 4.4 21:15:08 10° NNW 21:20:27 83° ENE 21:23:07 30° SSE
RESURS DK-1 2.6 21:17:19 10° NNW 21:21:24 55° ENE 21:22:21 44° ESE
Cosmos 1500 3.2 21:18:30 16° SSW 21:21:25 79° W 21:25:13 10° N
Cosmos 1656 3.6 21:16:03 10° SSW 21:21:41 87° ESE 21:27:17 10° NNE
BREEZE-M TANK 3.1 21:13:15 10° WNW 21:23:33 69° SSW 21:24:54 40° SE
Cosmos 2298 Rocket 4.1 21:20:04 10° NNW 21:25:23 75° WSW 21:28:25 26° S
Cosmos 2016 Rocket 4.1 21:23:05 27° SSE 21:26:16 52° E 21:32:15 10° NNE
Cosmos 2297 Rocket 2.9 21:23:20 10° NW 21:28:46 49° WSW 21:32:48 18° S
PSLV R/B 4.0 21:31:35 39° NNE 21:31:35 39° NNE 21:33:49 10° N
Cosmos 1340 2.6 21:31:04 10° N 21:34:51 63° E 21:34:56 63° E
Envisat 3.5 21:34:13 20° S 21:37:37 57° W 21:42:38 10° NNW
CZ-4 SHROUD 4.2 21:38:48 37° NNE 21:38:48 37° NNE 21:40:56 10° N
Cosmos 2173 Rocket 4.0 21:32:57 11° S 21:39:04 89° E 21:45:27 10° N
H-2A R/B 3.1 21:39:13 27° ENE 21:39:33 28° ENE 21:43:43 10° N
Milstar 3 Cent rocket 4.4 21:23:28 10° WSW 21:41:06 39° SSW 21:45:56 28° SSE
Cosmos 1937 Rocket 3.5 21:36:27 10° NNW 21:41:45 81° WSW 21:43:40 41° S
Cosmos 1726 Rocket 3.5 21:42:19 58° E 21:42:20 58° E 21:46:40 10° NNE
Terra 3.2 21:44:43 24° ENE 21:44:43 24° ENE 21:48:29 10° NNE
ASTEX 1 3.3 21:39:54 10° N 21:44:56 76° E 21:46:26 46° S
Cosmos 2098 Rocket 4.1 21:45:59 36° SSE 21:48:48 60° E 21:54:42 10° NNE
OAO 2 Rocket 4.4 21:45:00 10° WSW 21:48:33 29° SSW 21:48:33 29° SSW
Cosmos 2100 Rocket 4.2 21:43:12 10° SSW 21:49:28 71° W 21:55:43 10° N
YAOGAN 6 2.6 21:49:35 78° W 21:49:35 78° W 21:53:17 10° NNW
Cosmos 2061 Rocket 4.1 21:44:14 11° SSW 21:50:16 77° W 21:56:34 10° N
Tsikada Rocket 4.1 21:47:37 10° N 21:54:00 60° ENE 21:55:35 47° SE
Cosmos 1743 3.2 21:53:16 45° SW 21:54:10 60° W 21:58:03 10° N
Cosmos 1825 Rocket 3.9 21:49:57 10° NNW 21:54:21 63° W 21:55:22 47° SSW
Cosmos 967 Rocket 4.4 21:48:40 10° NNW 21:55:04 77° NE 21:56:50 50° SE
MetOp-A 4.3 21:55:02 38° S 21:57:03 68° WSW 22:02:24 10° NNW
Cosmos 990 Rocket 4.0 21:52:20 10° NNW 21:57:37 80° WSW 21:58:46 55° S
SPOT 1/Viking Rocket 3.4 21:57:13 58° SSE 21:58:16 83° ENE 22:03:31 10° NNW
DELTA 2 R/B (1) 4.3 21:55:14 10° W 22:00:19 37° SSW 22:00:24 37° SSW
USA 245 4.4 22:00:23 44° S 22:02:31 85° W 22:08:56 10° NNW
Cosmos 1953 Rocket 3.7 21:58:51 10° NNW 22:03:17 70° W 22:03:44 64° SW
CZ-4B R/B 3.4 21:58:52 10° NNE 22:03:04 58° ENE 22:03:04 58° ENE
H-2A R/B 3.4 22:06:31 27° SW 22:07:39 31° W 22:11:21 10° NNW
Cosmos 1697 Rocket 3.3 22:03:09 10° SW 22:08:41 55° WNW 22:14:15 10° NNE
Lacrosse 5 rocket 3.5 22:07:37 10° W 22:09:24 15° WSW 22:09:24 15° WSW
SL-16 R/B 3.4 22:15:31 27° ENE 22:15:31 27° ENE 22:18:27 10° NE
Cosmos 1842 3.9 22:10:25 10° NNW 22:13:32 53° NNW 22:13:32 53° NNW
NOAA 11 4.2 22:15:11 60° SSW 22:16:10 76° WSW 22:21:40 10° NNW
Cosmos 1816 Rocket 4.4 22:14:11 10° N 22:20:35 75° E 22:21:26 65° SE
Cosmos 1758 Rocket 4.2 22:18:08 10° NNW 22:22:20 49° W 22:22:20 49° W
Cosmos 1125 Rocket 3.5 22:18:15 10° NNW 22:23:15 71° NE 22:23:15 71° NE
Cosmos 1725 Rocket 3.9 22:22:45 53° SSW 22:24:22 84° W 22:30:39 10° N
Cosmos 1763 Rocket 3.7 22:24:18 51° SW 22:25:24 66° WNW 22:30:29 10° NNE
Cosmos 2228 4.0 22:29:02 43° N 22:29:02 43° N 22:31:58 10° N
Meteor 2-5 Rocket 4.2 22:23:41 10° N 22:29:09 49° ENE 22:29:09 49° ENE
Cosmos 1980 Rocket 2.6 22:26:51 20° SW 22:30:46 60° WNW 22:36:26 10° NNE
Meteor 1-15 Rocket 4.3 22:30:17 67° SSW 22:31:08 83° WNW 22:37:04 10° N
ARGOS 3.5 22:30:52 52° SW 22:31:32 56° W 22:36:50 10° NNW
Cosmos 2360 Rocket 4.4 22:35:19 12° ENE 22:35:19 12° ENE 22:35:46 10° NE
Lacrosse 5 3.0 22:35:32 10° WNW 22:39:26 34° WSW 22:39:26 34° WSW
BREEZE-M DEB (TANK) 4.3 22:09:29 10° WNW 22:41:17 88° NNE 22:43:29 54° ESE
Cosmos 2058 Rocket 4.2 22:44:37 40° WNW 22:44:37 40° WNW 22:48:52 10° N
USA 215 3.1 22:44:53 74° SSE 22:45:27 80° SW 22:52:02 10° NW
Cosmos 841 Rocket 4.2 22:45:04 43° WSW 22:46:09 50° WNW 22:51:15 10° N
Meteor 2-17 Rocket 4.3 22:48:05 85° W 22:48:09 85° W 22:54:14 10° N
BREEZE-M DEB (TANK) 4.4 22:39:47 10° SW 22:49:08 57° SW 22:49:08 57° SW
Cosmos 2233 Rocket 3.9 22:51:56 82° WSW 22:52:04 83° W 22:58:21 10° N
Meteor 1-24 Rocket 4.5 22:51:10 10° N 22:56:11 46° NE 22:56:11 46° NE
Cosmos 2263 Rocket 2.6 22:53:35 10° NNW 22:58:15 58° NNE 22:58:15 58° NNE
Cosmos 2322 Rocket 2.6 23:03:22 55° NNE 23:03:22 55° NNE 23:07:46 10° NNE
H-2A R/B 3.3 23:19:51 33° WNW 23:19:51 33° WNW 23:23:26 10° NNW
BREEZE-M DEB (TANK) 3.8 23:06:03 10° WNW 23:18:46 64° WSW 23:18:46 64° WSW
Terra 3.4 23:23:37 31° WNW 23:23:37 31° WNW 23:26:40 10° NNW
Cosmos 1464 Rocket 4.3 23:34:51 65° N 23:34:51 65° N 23:40:13 10° N
Cosmos 2278 Rocket 4.1 23:37:59 10° N 23:42:08 20° NE 23:42:08 20° NE
